Location: Bovenkerk
(52.2915°N, 4.8336°E)
Time: 12:04:09
(UTC+00:00)

Cosmos 1680 Rocket - Pass Details

Date: 09 April 2020
Orbit: 759 x 782 km, 74.1° (Epoch: 27 May)

Event Time Altitude Azimuth Distance (km) Brightness Sun altitude
Rises 23:41:51 0° 336° (NNW) 3,239 7.7 -29.7°
Reaches altitude 10° 23:44:16 10° 340° (NNW) 2,312 6.8 -29.7°
Enters shadow 23:49:07 56° 43° (NE) 914 4.0 -29.6°
